Flag for Namibia Weather past 2 weeks in Swakopmund, Namibia

Now
75 °F

Partly sunny.


Feels Like: 77 °F
Forecast: 65 / 74 °F
Wind: 6 mph from Northwest

Location: Walvis Bay

Current Time: Jan 26, 2015 at 1:28:17 PM

Latest Report: Jan 26, 2015 at 1:00 PM


Visibility: N/A

Pressure: 29.95 "Hg

Humidity: 65%

Dew point: 63 °F

Location of SwakopmundLocation

Historic Weather in Swakopmund — Graph

°F

Swakopmund temperature yesterday

Maximum temperature yesterday: 75 °F (at 6:00 PM)
Minimum temperature yesterday: 68 °F (at 7:00 AM)
Average temperature yesterday: 71 °F

Past Weeks' High & Low Weather Summary

 TemperatureHumidityPressure
High84 °F (Jan 24, 2:00 PM)94% (Jan 17, 2:00 AM)30.04 "Hg (Jan 17, 2:00 AM)
Low59 °F (Jan 16, 5:00 AM)42% (Jan 16, 12:00 PM)29.83 "Hg (Jan 23, 4:00 PM)
Average66 °F75%29.93 "Hg
* Reported Jan 11 1:00 PM — Jan 26 12:00 Noon, Swakopmund, Weather by CustomWeather, © 2014

Note: Actual official high and low records may vary slightly from our data, if they occured in-between our weather recording intervals... More about our weather records

Advertising

Swakopmund weather history for previous 24 hours

 ConditionsComfort  
Time TempWeatherWind HumidityBarometerVisibility
12:00 PM
Jan 26
72 °FMild.6 mph78%29.95 "HgN/A
11:00 AM70 °FOvercast.5 mph83%29.95 "HgN/A
10:00 AM68 °FOvercast.5 mph88%29.95 "HgN/A
9:00 AM68 °FLow clouds.3 mph88%29.95 "HgN/A
8:00 AM66 °FLow clouds.1 mph88%29.95 "HgN/A
7:00 AM66 °FLow clouds.3 mph94%29.92 "HgN/A
6:00 AM66 °FMild.2 mph88%29.89 "HgN/A
5:00 AM66 °FMild.3 mph88%29.89 "HgN/A
4:00 AM66 °FMild.5 mph88%29.89 "HgN/A
3:00 AM68 °FMild.5 mph83%29.86 "HgN/A
2:00 AM68 °FMild.3 mph83%29.89 "HgN/A
1:00 AM68 °FMild.1 mph83%29.89 "HgN/A
12:00 AM68 °FMild.5 mph83%29.89 "HgN/A
11:00 PM
Jan 25
68 °FMild.3 mph83%29.89 "HgN/A
10:00 PM70 °FMild.3 mph78%29.89 "HgN/A
9:00 PM70 °FMild.6 mph78%29.89 "HgN/A
8:00 PM72 °FOvercast.7 mph73%29.86 "HgN/A
7:00 PM75 °FMild.3 mph61%29.86 "HgN/A
6:00 PM75 °FMild.8 mph65%29.83 "HgN/A
3:00 PM73 °FMild.9 mph74%29.86 "HgN/A
1:00 PM73 °FOvercast.9 mph74%29.89 "HgN/A
Weather by CustomWeather, © 2014

See weather overviewHow to use our weather pages